STARLINK-33823, 63661

Orbit data source: Space-Track

STARLINK-33823, 63661 is a payload satellite owned by SpaceX/Seattle (US) in LEO that was launched on Fri, 25 Apr 2025 UTC via an FALCON 9 launch vehicle from the Air Force Eastern Test Range (AFETR). Payload-class satellites include a variety of spacecraft equipped with specific instruments for various scientific and technological missions. These include communications satellites like Starlink; space stations such as the ISS; scientific satellites like the Hubble; Earth observation satellites from companies like Planet Labs, Umbra, and HawkEye 360; GPS; miniature CubeSats for education and research; and military/defense satellites.

Loading next visibility...
Identifier
63661, 2025-083AD
Orbit
LEO
Country
Flag of USUS
Related business
Manufacturer
SpaceX/Seattle
Mission
Operational Commercial Communications
Bus & Motor
STARLINK V2MO, Unknown motor
Mass
575 kg wet, ~530 kg dry
Launch date (UTC)
2025-04-25 (1 year ago)
Launch vehicle
FALCON 9
Launch site
Air Force Eastern Test Range (AFETR)
Object type
Payload
Rocket body
Debris
Shape & HBR
Box + 2 Pan, 17.7 m
Radar Cross Section
36.964 m², Large (>1 m²)

Expand to show TLE details & history
Last TLE update: 12 hours ago

TLE from 12 hours ago
0 STARLINK-33823
1 63661U 25083AD  26171.33360602  .00016536  00000-0  60877-3 0  9992
2 63661  43.0015 145.6381 0001719 271.2323  88.8331 15.27596969 65790
Epoch: 2026-06-20T08:00Z
TLE epoch observation values (Epoch: 2026-06-20T08:00:23.560Z)
Latitude
-0.00005°
Longitude
116.99015°
Altitude
482.75 km
Speed
7.626 km/s
True Right ascension
09h 42m 33s
True Declination
0° 00' 00"
Sunlit
Object was in daylight at epoch
Visualization orbit readout
Latitude
Unknown
Longitude
Unknown
Altitude
Unknown
Speed
Unknown
Apparent Right ascension
Unknown
Apparent Declination
Unknown
Sunlit
N/A
Visualization observer readout
Local Sidereal Time
07:18:20
Azimuth
Unknown
Elevation
Unknown
Doppler factor
Unknown
Orbital elements
Apogee altitude
486.123 km
Perigee altitude
483.763 km
Semi-major axis
6,863.08 km
Eccentricity
0.00017
Inclination
43.0015°
RAAN
145.6381°
Arg. of periapsis
271.2323°
True anomaly
88.85279°
Mean anomaly
88.8331°
Eccentric anomaly
88.84295°
Mean motion
3.81737 °/min
Orbital period
94.31 mins
BSTAR
0.00060877
Loading maneuver chart data...
Computing Atmospheric mass density...
Loading historical data...
Loading historical data...
Loading historical data...
Loading historical data...
Loading historical data...
Loading historical data...
Loading historical data...

Documentation

Showing up to 5 results
|